Weather History for Wright-Patt AFB, OH

Change the Weather History Date:

Thursday, July 25, 2013

  Actual Average Record
Temperature  
Mean Temperature 66 °F -  
Max Temperature 77 °F 82 °F 96 °F (2005)
Min Temperature 55 °F 61 °F 52 °F (2014)
Growing Degree Days 16 (Base 50)    
Moisture  
Dew Point 54 °F    
Average Humidity 68    
Maximum Humidity 91    
Minimum Humidity 47    
Precipitation  
Precipitation 0.00 in - - ()
Sea Level Pressure  
Sea Level Pressure 30.08 in    
Wind  
Wind Speed 5 mph (NNE)    
Max Wind Speed 9 mph    
Max Gust Speed -    
Visibility 10 miles    
Events      
Averages and records for this station are not official NWS values.
T = Trace of Precipitation, MM = Missing Value Source: NWS Daily Summary

Daily Weather History Graph

Daily Weather History Graph

Search for Another Location

Airport:

Trip Planner

Search our weather history database for the weather conditions in past years. The results will help you decide how hot, cold, wet, or windy it might be!

Date:

Astronomy

Jul. 25, 2013 Rise Set
Actual Time 6:28 AM EDT 8:55 PM EDT
Civil Twilight 5:58 AM EDT 9:26 PM EDT
Nautical Twilight 5:19 AM EDT 10:04 PM EDT
Astronomical Twilight 4:37 AM EDT 10:47 PM EDT
Moon 10:36 PM EDT (7/25) 9:56 AM EDT (7/25)
Length of Visible Light 15h 28m
Length of Day
14h 27m
Waning Gibbous, 88% of the Moon is Illuminated
Jul 25
Waning Gibbous
Jul 29
Last Quarter
Aug 6
New
Aug 14
First Quarter
Aug 20
Full

Hourly Weather History & Observations

Time (EDT) Temp. Dew Point Humidity Pressure Visibility Wind Dir Wind Speed Gust Speed Precip Events Conditions
12:58 AM 59.2 °F 54.3 °F 84% 30.04 in 10.0 mi North 4.6 mph - N/A   Clear
1:58 AM 56.8 °F 53.1 °F 87% 30.03 in 10.0 mi NE 4.6 mph - N/A   Clear
2:58 AM 58.3 °F 53.2 °F 83% 30.04 in 10.0 mi NNE 3.5 mph - N/A   Clear
3:58 AM 55.6 °F 52.9 °F 91% 30.04 in 10.0 mi Calm Calm - N/A   Clear
4:58 AM 55.9 °F 52.9 °F 89% 30.04 in 10.0 mi Calm Calm - N/A   Clear
5:58 AM 55.0 °F 52.2 °F 90% 30.04 in 10.0 mi NNE 3.5 mph - N/A   Clear
6:58 AM 55.2 °F 52.3 °F 90% 30.06 in 10.0 mi North 3.5 mph - N/A   Clear
7:58 AM 56.8 °F 53.1 °F 87% 30.08 in 10.0 mi NE 5.8 mph - N/A   Clear
8:58 AM 61.3 °F 54.0 °F 77% 30.09 in 10.0 mi NE 5.8 mph - N/A   Clear
9:58 AM 65.3 °F 53.2 °F 65% 30.09 in 10.0 mi NE 5.8 mph - N/A   Clear
10:58 AM 68.5 °F 52.3 °F 56% 30.09 in 10.0 mi NE 8.1 mph - N/A   Partly Cloudy
11:58 AM 70.3 °F 53.2 °F 55% 30.10 in 10.0 mi NE 9.2 mph - N/A   Partly Cloudy
12:58 PM 71.8 °F 54.1 °F 54% 30.10 in 10.0 mi Variable 6.9 mph - N/A   Partly Cloudy
1:58 PM 73.4 °F 54.5 °F 51% 30.09 in 10.0 mi Variable 6.9 mph - N/A   Partly Cloudy
2:58 PM 74.5 °F 54.1 °F 49% 30.09 in 10.0 mi ENE 8.1 mph - N/A   Partly Cloudy
3:58 PM 75.9 °F 54.3 °F 47% 30.09 in 10.0 mi NE 6.9 mph - N/A   Partly Cloudy
4:58 PM 76.1 °F 54.5 °F 47% 30.08 in 10.0 mi NNW 5.8 mph - N/A   Partly Cloudy
5:55 PM 76.3 °F 54.9 °F 47% 30.07 in 10.0 mi Variable 5.8 mph - N/A   Partly Cloudy
6:55 PM 75.4 °F 54.3 °F 48% 30.07 in 10.0 mi NNE 5.8 mph - N/A   Partly Cloudy
7:55 PM 73.4 °F 55.4 °F 53% 30.08 in 10.0 mi North 5.8 mph - N/A   Clear
8:55 PM 71.8 °F 56.1 °F 58% 30.09 in 10.0 mi NNW 5.8 mph - N/A   Partly Cloudy
9:58 PM 66.9 °F 58.1 °F 73% 30.10 in 10.0 mi North 3.5 mph - N/A   Partly Cloudy
10:58 PM 65.5 °F 58.1 °F 77% 30.10 in 10.0 mi Calm Calm - N/A   Partly Cloudy
11:58 PM 64.4 °F 58.3 °F 80% 30.11 in 10.0 mi Calm Calm - N/A   Partly Cloudy